Regional Weather Roundup
Issued by NWS Sioux Falls, SD

Home | Current Version | Previous Version | Text Only | Print | Product List | Glossary Off
Versions: 1 2 3 4 5 6 7 8 9 10 11 12 13 14 15 16 17 18 19 20 21 22 23 24 25 26 27 28 29 30 31 32 33 34 35 36 37 38 39 40 41 42 43 44 45 46 47 48 49 50

000
ASUS43 KFSD 271410
RWRFSD

WEATHER ROUNDUP FOR SE SOUTH DAKOTA/SW MINNESOTA/NW IOWA
NATIONAL WEATHER SERVICE SIOUX FALLS SD
900 AM CDT TUE JUN 27 2017

NOTE: "FAIR" INDICATES FEW OR NO CLOUDS BELOW 12,000 FEET WITH NO
SIGNIFICANT WEATHER AND OR OBSTRUCTIONS TO VISIBILITY.


SDZ038>040-050-052>070-271500-
SOUTHEAST SOUTH DAKOTA

CITY           SKY/WX    TMP DP  RH WIND       PRES   REMARKS
BROOKINGS      MOSUNNY   61  45  55 S13       30.03F
CHAMBERLAIN    SUNNY     67  54  63 SE23G30   29.94F
HURON          PTSUNNY   59  46  62 S14       29.97F
MADISON        FAIR      59  46  63 S18       30.04F
MITCHELL       MOSUNNY   63  47  55 S14       30.00F
SIOUX FALLS    PTSUNNY   63  48  58 S15       30.05F
WINNER         FAIR      69  54  58 S25G37    29.91F
YANKTON        SUNNY     64  54  69 S15       30.03F
$$

MNZ071-072-080-081-089-090-097-098-271500-
SOUTHWEST MINNESOTA

CITY           SKY/WX    TMP DP  RH WIND       PRES   REMARKS
FAIRMONT       SUNNY     64  45  49 S9        30.11F
JACKSON        SUNNY     63  43  48 S8        30.11F
LUVERNE        SUNNY     59  43  55 S10       30.08F
MARSHALL       SUNNY     66  44  45 S16G22    30.05F
MONTEVIDEO     SUNNY     66  46  48 SW9       30.04F
PIPESTONE      SUNNY     63  43  48 S15       30.06F
REDWOOD FALLS  SUNNY     66  43  43 S12       30.07F
TRACY          SUNNY     65  45  48 S12G18    30.07F
WINDOM         SUNNY     64  43  45 S9        30.09F
WORTHINGTON    MOSUNNY   64  43  46 S16       30.09F
$$

IAZ001>003-012>014-020>022-031-032-NEZ013-014-SDZ071-271500-
NORTHWEST IOWA

CITY           SKY/WX    TMP DP  RH WIND       PRES   REMARKS
CHEROKEE       SUNNY     64  46  51 S12       30.10F
DENISON        SUNNY     64  48  55 S15       30.13S
ESTHERVILLE    SUNNY     62  46  55 S14       30.10F
LE MARS        SUNNY     66  46  48 S16G22    30.09S
ORANGE CITY    SUNNY     64  46  52 S10       30.08F
SHELDON        SUNNY     64  45  48 S15       30.07F
SIOUX CITY     SUNNY     62  50  64 S13       30.09S
SPENCER        SUNNY     66  43  43 S17       30.10F
STORM LAKE     SUNNY     64  45  48 S12       30.11F
$$

ABBREVIATIONS USED IN REMARKS
   TC - TEMPERATURE IN CELSIUS
  WCI - WIND CHILL INDEX
   HX - HEAT INDEX
  VSB - VISIBILITY




USA.gov is the U.S. government's official web portal to all federal, state and local government web resources and services.